• In Lithuania
  • List of Countries
  • For 7 days
  • Water Temperature
  • Satellite Maps
  • Weather Map
  • Weather Widgets
  • user-avatar
    Login

    Hourly Weather Portalegre

    Today, 24 June, Sunday

    Time Temperature Precipitation Wind Pressure Humidity
    00:00 +24°C° 0 mm 2 mps 722 mmHg 61%
    01:00 +23°C° 0 mm 2 mps 722 mmHg 64%
    02:00 +23°C° 0 mm 2 mps 722 mmHg 67%
    03:00 +22°C° 0 mm 1 mps 722 mmHg 69%
    04:00 +22°C° 0 mm 1 mps 722 mmHg 70%
    05:00 +22°C° 0 mm 1 mps 722 mmHg 71%
    06:00 +22°C° 0 mm 1 mps 722 mmHg 72%
    07:00 +24°C° 0 mm 1 mps 722 mmHg 63%
    08:00 +27°C° 0 mm 1 mps 723 mmHg 55%
    09:00 +29°C° 0 mm 1 mps 723 mmHg 46%
    10:00 +31°C° 0 mm 1 mps 723 mmHg 41%
    11:00 +33°C° 0 mm 1 mps 723 mmHg 36%
    12:00 +35°C° 0 mm 1 mps 723 mmHg 30%
    13:00 +35°C° 0 mm 1 mps 723 mmHg 29%
    14:00 +36°C° 0 mm 2 mps 723 mmHg 27%
    15:00 +37°C° 0 mm 2 mps 722 mmHg 25%
    16:00 +36°C° 0 mm 2 mps 722 mmHg 27%
    17:00 +36°C° 0 mm 3 mps 722 mmHg 29%
    18:00 +35°C° 0 mm 3 mps 722 mmHg 30%
    19:00 +33°C° 0 mm 3 mps 722 mmHg 38%
    20:00 +29°C° 0 mm 3 mps 722 mmHg 45%
    21:00 +27°C° 0 mm 3 mps 722 mmHg 53%
    22:00 +25°C° 0 mm 3 mps 722 mmHg 58%
    23:00 +24°C° 0 mm 3 mps 722 mmHg 62%

    Tomorrow, 25 June, Monday

    Time Temperature Precipitation Wind Pressure Humidity
    00:00 +23°C° 0 mm 2 mps 722 mmHg 67%
    01:00 +21°C° 0 mm 2 mps 722 mmHg 68%
    02:00 +21°C° 0 mm 2 mps 722 mmHg 70%
    03:00 +21°C° 0 mm 1 mps 722 mmHg 72%
    04:00 +21°C° 0 mm 1 mps 722 mmHg 73%
    05:00 +21°C° 0 mm 1 mps 722 mmHg 74%
    06:00 +21°C° 0 mm 1 mps 722 mmHg 75%
    07:00 +22°C° 0 mm 1 mps 723 mmHg 68%
    08:00 +24°C° 0 mm 2 mps 723 mmHg 60%
    09:00 +26°C° 0 mm 2 mps 724 mmHg 53%
    10:00 +28°C° 0 mm 2 mps 724 mmHg 49%
    11:00 +29°C° 0 mm 2 mps 724 mmHg 44%
    12:00 +31°C° 0 mm 3 mps 724 mmHg 40%
    13:00 +33°C° 0 mm 3 mps 724 mmHg 38%
    14:00 +33°C° 0 mm 3 mps 724 mmHg 36%
    15:00 +34°C° 0 mm 3 mps 724 mmHg 34%
    16:00 +33°C° 0 mm 3 mps 724 mmHg 36%
    17:00 +33°C° 0 mm 4 mps 724 mmHg 37%
    18:00 +32°C° 0 mm 4 mps 723 mmHg 39%
    19:00 +29°C° 0 mm 4 mps 724 mmHg 47%
    20:00 +26°C° 0 mm 4 mps 724 mmHg 55%
    21:00 +23°C° 0 mm 4 mps 724 mmHg 63%
    22:00 +22°C° 0 mm 3 mps 724 mmHg 67%
    23:00 +21°C° 0 mm 3 mps 724 mmHg 71%

    Day after tomorrow, 26 June, Tuesday

    Time Temperature Precipitation Wind Pressure Humidity
    00:00 +20°C° 0 mm 2 mps 724 mmHg 75%
    01:00 +19°C° 0 mm 2 mps 723 mmHg 77%
    02:00 +18°C° 0 mm 2 mps 723 mmHg 79%
    03:00 +18°C° 0 mm 2 mps 723 mmHg 81%
    04:00 +18°C° 0 mm 1 mps 723 mmHg 81%
    05:00 +18°C° 0 mm 1 mps 723 mmHg 81%
    06:00 +18°C° 0 mm 1 mps 723 mmHg 81%
    07:00 +19°C° 0 mm 2 mps 723 mmHg 70%
    08:00 +21°C° 0 mm 2 mps 724 mmHg 60%
    09:00 +24°C° 0 mm 2 mps 724 mmHg 49%
    10:00 +26°C° 0 mm 2 mps 724 mmHg 42%
    11:00 +28°C° 0 mm 3 mps 724 mmHg 36%
    12:00 +30°C° 0 mm 3 mps 724 mmHg 29%
    13:00 +30°C° 0 mm 3 mps 724 mmHg 27%
    14:00 +31°C° 0 mm 3 mps 724 mmHg 26%
    15:00 +33°C° 0 mm 4 mps 724 mmHg 24%
    16:00 +32°C° 0 mm 4 mps 724 mmHg 27%
    17:00 +30°C° 0 mm 4 mps 724 mmHg 30%
    18:00 +29°C° 0 mm 5 mps 723 mmHg 33%
    19:00 +27°C° 0 mm 4 mps 724 mmHg 41%
    20:00 +23°C° 0 mm 4 mps 724 mmHg 48%
    21:00 +21°C° 0 mm 4 mps 724 mmHg 56%
    22:00 +20°C° 0 mm 3 mps 724 mmHg 61%
    23:00 +19°C° 0 mm 3 mps 724 mmHg 66%

    27 June, Wednesday

    Time Temperature Precipitation Wind Pressure Humidity
    00:00 +17°C° 0 mm 3 mps 724 mmHg 72%
    01:00 +17°C° 0 mm 2 mps 724 mmHg 75%
    02:00 +16°C° 0 mm 2 mps 723 mmHg 78%
    03:00 +15°C° 0 mm 2 mps 723 mmHg 81%
    04:00 +15°C° 0 mm 2 mps 723 mmHg 81%
    05:00 +15°C° 0 mm 2 mps 723 mmHg 81%
    06:00 +15°C° 0 mm 1 mps 723 mmHg 82%
    07:00 +19°C° 0 mm 1 mps 724 mmHg 71%
    08:00 +20°C° 0 mm 2 mps 724 mmHg 60%
    09:00 +23°C° 0 mm 2 mps 724 mmHg 50%
    10:00 +25°C° 0 mm 2 mps 724 mmHg 43%
    11:00 +27°C° 0 mm 2 mps 724 mmHg 37%
    12:00 +29°C° 0 mm 3 mps 724 mmHg 31%
    13:00 +30°C° 0 mm 3 mps 724 mmHg 30%
    14:00 +30°C° 0 mm 3 mps 724 mmHg 28%
    15:00 +31°C° 0 mm 3 mps 723 mmHg 27%
    16:00 +30°C° 0 mm 3 mps 723 mmHg 30%
    17:00 +29°C° 0 mm 3 mps 723 mmHg 33%
    18:00 +29°C° 0 mm 4 mps 723 mmHg 36%
    19:00 +26°C° 0 mm 3 mps 723 mmHg 44%
    20:00 +24°C° 0 mm 3 mps 723 mmHg 52%
    21:00 +21°C° 0 mm 3 mps 723 mmHg 60%
    22:00 +20°C° 0 mm 3 mps 723 mmHg 64%
    23:00 +19°C° 0 mm 2 mps 722 mmHg 68%

    28 June, Thursday

    Time Temperature Precipitation Wind Pressure Humidity
    00:00 +18°C° 0 mm 2 mps 722 mmHg 73%
    01:00 +18°C° 0 mm 2 mps 722 mmHg 74%
    02:00 +18°C° 0 mm 1 mps 721 mmHg 75%
    03:00 +18°C° 0 mm 1 mps 721 mmHg 76%
    04:00 +18°C° 0 mm 1 mps 721 mmHg 75%
    05:00 +18°C° 0 mm 1 mps 721 mmHg 75%
    06:00 +18°C° 0 mm 1 mps 721 mmHg 74%
    07:00 +20°C° 0 mm 1 mps 721 mmHg 67%
    08:00 +22°C° 0 mm 1 mps 721 mmHg 59%
    09:00 +24°C° 0 mm 1 mps 721 mmHg 52%
    10:00 +26°C° 0 mm 1 mps 721 mmHg 46%
    11:00 +27°C° 0 mm 1 mps 721 mmHg 39%
    12:00 +29°C° 0 mm 2 mps 721 mmHg 33%
    13:00 +29°C° 0 mm 2 mps 721 mmHg 31%
    14:00 +30°C° 0 mm 2 mps 720 mmHg 30%
    15:00 +30°C° 0 mm 2 mps 720 mmHg 29%
    16:00 +30°C° 0 mm 2 mps 720 mmHg 31%
    17:00 +29°C° 0 mm 2 mps 720 mmHg 34%
    18:00 +28°C° 0 mm 2 mps 720 mmHg 36%
    19:00 +26°C° 0.1 mm 2 mps 720 mmHg 44%
    20:00 +24°C° 0.1 mm 2 mps 720 mmHg 53%
    21:00 +21°C° 0.1 mm 3 mps 720 mmHg 61%
    22:00 +20°C° 0.1 mm 2 mps 720 mmHg 66%
    23:00 +19°C° 0.1 mm 2 mps 720 mmHg 72%

    29 June, Friday

    Time Temperature Precipitation Wind Pressure Humidity
    00:00 +19°C° 0.1 mm 1 mps 719 mmHg 77%
    01:00 +19°C° 0 mm 1 mps 719 mmHg 78%
    02:00 +19°C° 0 mm 1 mps 719 mmHg 79%
    03:00 +18°C° 0 mm 1 mps 719 mmHg 81%
    04:00 +18°C° 0 mm 1 mps 719 mmHg 80%
    05:00 +18°C° 0 mm 1 mps 719 mmHg 80%
    06:00 +18°C° 0 mm 1 mps 719 mmHg 80%
    07:00 +20°C° 0 mm 1 mps 719 mmHg 71%
    08:00 +22°C° 0 mm 1 mps 720 mmHg 62%
    09:00 +24°C° 0 mm 1 mps 720 mmHg 53%
    10:00 +26°C° 0 mm 2 mps 720 mmHg 47%
    11:00 +27°C° 0 mm 2 mps 720 mmHg 41%
    12:00 +29°C° 0 mm 2 mps 720 mmHg 36%
    13:00 +29°C° 0 mm 2 mps 720 mmHg 34%
    14:00 +29°C° 0 mm 3 mps 719 mmHg 33%
    15:00 +30°C° 0 mm 3 mps 719 mmHg 32%
    16:00 +29°C° 0 mm 3 mps 719 mmHg 33%
    17:00 +29°C° 0 mm 3 mps 719 mmHg 35%
    18:00 +28°C° 0 mm 3 mps 719 mmHg 36%
    19:00 +26°C° 0 mm 3 mps 720 mmHg 42%
    20:00 +24°C° 0 mm 3 mps 720 mmHg 48%
    21:00 +21°C° 0 mm 3 mps 720 mmHg 55%
    22:00 +20°C° 0 mm 3 mps 720 mmHg 61%
    23:00 +19°C° 0 mm 2 mps 720 mmHg 67%
    Show more